Flag for Australia Weather past 2 weeks in Alice Springs, Northern Territory, Australia

Now
59 °F

Sunny.


Feels Like: 57 °F
Forecast: 39 / 68 °F
Wind: 10 mph from East

Location: Alice Springs Aerodrome

Current Time: May 23, 2015 at 12:45:36 PM

Latest Report: May 23, 2015 at 12:30 PM


Visibility: 10 mi

Pressure: 30.27 "Hg

Humidity: 31%

Dew point: 28 °F

Location of Alice SpringsLocation

Historic Weather in Alice Springs — Graph

°F

Alice Springs temperature yesterday

Maximum temperature yesterday: 61 °F (at 2:00 PM)
Minimum temperature yesterday: 36 °F (at 7:00 AM)
Average temperature yesterday: 49 °F

Past Weeks' High & Low Weather Summary

 TemperatureHumidityPressure
High81 °F (May 18, 2:00 PM)93% (May 16, 6:30 AM)30.51 "Hg (May 16, 6:30 AM)
Low30 °F (May 16, 5:00 AM)11% (May 14, 3:31 PM)30.04 "Hg (May 18, 3:00 PM)
Average55 °F42%30.25 "Hg
* Reported May 8 11:30 AM — May 23 11:30 AM, Alice Springs, Weather by CustomWeather, © 2015

Note: Actual official high and low records may vary slightly from our data, if they occured in-between our weather recording intervals... More about our weather records

Advertising

Alice Springs weather history for previous 24 hours

 ConditionsComfort  
Time TempWeatherWind HumidityBarometerVisibility
11:30 AM
Sat, May 23
57 °FSunny.13 mph33%30.30 "Hg10 mi
11:00 AM55 °FSunny.14 mph36%30.30 "Hg10 mi
10:30 AM54 °FSunny.16 mph41%30.33 "Hg10 mi
10:00 AM54 °FSunny.17 mph41%30.33 "Hg10 mi
9:30 AM52 °FSunny.16 mph44%30.33 "Hg10 mi
9:00 AM50 °FSunny.8 mph47%30.33 "Hg10 mi
8:30 AM45 °FSunny.1 mph57%30.33 "Hg10 mi
8:00 AM39 °FSunny.No wind61%30.33 "Hg10 mi
7:30 AM32 °FSunny.5 mph75%30.33 "Hg10 mi
6:30 AM30 °FClear.No wind86%30.30 "Hg10 mi
6:00 AM34 °FClear.2 mph75%30.30 "Hg10 mi
5:30 AM32 °FClear.5 mphN/A30.30 "HgN/A
5:00 AM34 °FClear.5 mphN/A30.30 "HgN/A
4:30 AM34 °FClear.6 mphN/A30.30 "HgN/A
4:00 AM34 °FClear.No windN/A30.30 "HgN/A
3:30 AM36 °FClear.No windN/A30.30 "HgN/A
3:00 AM36 °FClear.2 mph75%30.30 "HgN/A
2:30 AM36 °FClear.1 mph75%30.30 "HgN/A
2:00 AM37 °FClear.5 mph65%30.30 "HgN/A
1:30 AM39 °FClear.No wind65%30.30 "HgN/A
1:00 AM39 °FClear.2 mph65%30.30 "HgN/A
12:30 AM41 °FClear.5 mph61%30.30 "HgN/A
12:00 AM39 °FClear.3 mph65%30.30 "HgN/A
11:30 PM
Fri, May 22
43 °FClear.5 mph57%30.30 "HgN/A
11:00 PM45 °FClear.6 mph53%30.30 "HgN/A
10:30 PM45 °FClear.5 mph57%30.30 "HgN/A
10:00 PM48 °FClear.5 mph50%30.33 "HgN/A
9:30 PM48 °FClear.6 mph50%30.33 "HgN/A
9:00 PM48 °FClear.8 mph50%30.33 "HgN/A
8:30 PM52 °FClear.7 mph41%30.33 "HgN/A
8:00 PM54 °FClear.7 mph38%30.33 "HgN/A
7:30 PM55 °FClear.8 mph36%30.30 "HgN/A
7:00 PM55 °FPassing clouds.9 mph33%30.27 "HgN/A
6:30 PM57 °FClear.10 mph31%30.27 "HgN/A
6:00 PM59 °FClear.12 mph29%30.27 "HgN/A
5:30 PM59 °FPassing clouds.10 mph27%30.27 "HgN/A
5:00 PM59 °FSunny.12 mph29%30.27 "Hg10 mi
4:30 PM61 °FSunny.10 mph27%30.27 "Hg10 mi
4:00 PM61 °FSunny.8 mph29%30.27 "Hg10 mi
3:30 PM61 °FPassing clouds.9 mph29%30.27 "HgN/A
3:00 PM61 °FSunny.13 mph29%30.27 "Hg10 mi
2:30 PM59 °FPassing clouds.10 mph31%30.27 "HgN/A
2:00 PM61 °FSunny.13 mph27%30.30 "Hg10 mi
1:30 PM59 °FSunny.12 mph31%30.30 "Hg10 mi
1:00 PM59 °FPassing clouds.9 mph36%30.33 "HgN/A
12:30 PM59 °FSunny.12 mph34%30.33 "Hg10 mi
12:00 PM57 °FSunny.13 mph36%30.33 "Hg10 mi
Weather by CustomWeather, © 2015

See weather overviewHow to use our weather pages